239ALFEROV (RS61S) (64881 NORAD) Tracking and Keplerian Element Data

This shows tracking and keplerian element data for the satellite.

Feedback or suggestion? Click here.




ElementValue
Catalog64881
Name239ALFEROV (RS61S)
Epoch Orbit5343
Epoch Day354.16377704
Epoch Year2025
RAAN317.9899
Inclination97.4354
Eccentricity0.0010547
Argument of Perigee90.138
Mean Anonmoly270.1067
Mean Motion15.26855838
Decay Rate0.00010276
L11 64881U 25155F 25354.16377704 .00010276 00000+0 39152-3 0 9997
L22 64881 97.4354 317.9899 0010547 90.1380 270.1067 15.26855838 53434



Live tracking and technical data element details for 239ALFEROV (RS61S) (NORAD 64881). 239ALFEROV (RS61S) can be tracked NOW for your location showing map with azimuth and elevation plus other details from your city location.







IsCatalogInMostPopularTable: catalog: 64881, numindb: 23
Update: records affected: 1



GetName: 64881 239ALFEROV (RS61S)

Hit Count: updated at: Wed, 15 Apr 2026 01:24:42 GMT